DMC 2

Satellite information

Favourite Embed

Satellite Type and Status

PAYLOADIN ORBIT

Key statistics

Satellite DMC 2 at a glance.

Uptime

5929

Days in orbit

Revolutions

≈ 14.8

Per day

Orbit

SSO

Sun Synchronous Orbit

Inclination

97.9

Latest

Satellite identification and parameters

Extended collection of information and parameters for DMC 2.

Object identification

Identified? True

Debris? False

Object name: DMC 2

International designator: 2009-041C

Object number (NORAD): 35683

Object ID (CCSDS): 35683

Country: UNITED KINGDOM (UK)

Current information (Y/N): Y

RCS size: MEDIUM

Orbital parameters

Period: 97.597 minutes

Inclination: 97.8516 deg

SMA: 7021.859 km

Apoapsis: 644.582 km

Periapsis: 642.867 km

RAAN: 71.2239 deg

Eccentricy: 0.0001221

Argument of periapsis: 78.9717 deg

Mean anomaly: 281.163 deg

Mean motion: 14.754503 rev/day

Mean motion (dot): 0.00001892 rev/day2

B* drag term: 0.00028556 1/REarth

Two-line elements (TLE)

Creation date: Oct. 21, 2025, 11:56 p.m.

Reference frame: TEME

Reference center: EARTH

Epoch: Oct. 21, 2025, 8:01 p.m. UTC

TLE line 0: 0 DMC 2

TLE line 1: 1 35683U 09041C 25294.83432565 .00001892 00000-0 28556-3 0 9996

TLE line 2: 2 35683 97.8516 71.2239 0001221 78.9717 281.1630 14.75450300871413

Live tracking on map

Real-time ground track for satellite DMC 2.

In-orbit conjunctions

There are no conjunctions computed for DMC 2, at the moment. Check back to stay up to date, as we update our databases every day.

Go to all conjunctions

Associated space launch

Emirati Earth observation satellite. Launched with 5 secondary payloads.

DMC 2 was lifted into orbit during the mission ‘Dnepr | DubaiSat 1’, on board a Dnepr space rocket.

The launch took place on July 29, 2009, 6:46 p.m. from 109/95.

For more information about the launch, click the button.

Launch to space Dnepr | DubaiSat 1
Dnepr | DubaiSat 1

Agency: N/A

Status: Launch Successful

Launch date: July 29, 2009, 6:46 p.m. UTC

Rocket: Dnepr

Launch pad: 109/95

Location: Baikonur Cosmodrome, Republic of Kazakhstan

...

Latest news about this satellite

There are no fresh news available about this satellite. Check back as we update our databases every day.


Newsletter sign-up

Weekly statistics, charts and insights to help you stay on top of the space industry.